Probability
0 0 0 0 0 0 0 0 0 0 0 0 0 0 0 0 0 0 0 0 0 0 0 0 0 0 0 0 0 0 0 0 0 0 0 0 0 0 0 0 0 0 0
0 0 0 0 0 0 0 0 0 0 0 0 0 0 0 0 0 0 0 0 0 0 0 0 0 0 0 0 0 0 0 0 0 0 0 0 0 0 0 0 0 0 0
0 0 0 0 0 0 0 0 0 0 0 0 0 0 0 0 0 0 0 0 0 0 0 0 0 0 0 0 0 0 0 0 0 0 0 0 0 0 0 0 0 0 0
0 0 0 0 0 0 0 0 0 0 0 0 0 0 0 0 0 0 0 0 0 0 0 0 0 0 0 0 0 0 0 0 0 0 0 0 0 0 0 0 0 0 0
0 0 0 0 0 0 0 0 0 0 0 0 0 0 0 0 0 0 0 0 0 0 0 0 0 0 0 0 0 0 0 0 0 0 0 0 0 0 0 0 0 0 0
0 0 0 0 0 0 0 0 0 0 0 0 0 0 0 0 0 0 0 0 0 0 0 0 0 0 0 0 0 0 0 0 0 0 0 0 0 0 0 0 0 0 0
0 0 0 0 0 0 0 0 0 0 0 0 0 0 0 0 0 0 0 0 0 0 0 0 0 0 0 0 0 0 0 0 0 0 0 0 0 0 0 0 0 0 0
0 0 0 0 0 0 0 0 0 0 0 0 0 0 0 0 0 0 0 0 0 0 0 0 0 0 0 0 0 0 0 0 0 0 0 0 0 0 0 0 0 0 0
0 0 0 0 0 0 0 0 0 0 0 0 0 0 0 0 0 0 0 0 0 0 0 0 0 0 0 0 0 0 0 0 0 0 0 0 0 0 0 0 0 0 0
0 0 0 0 0 0 0 0 0 0 0 0 0 0 0 0 0 0 0 0 0 0 0 0 0 0 0 0 0 0 0 0 0 0 0 0 0 0 0 0 0 0 0
0 0 0 0 0 0 0 0 0 0 0 0 0 0 0 0 0 0 0 0 0 0 0 0 0 0 0 0 0 0 0 0 0 0 0 0 0 0 0 0 0 0 0
0 0 0 0 0 0 0 0 0 0 0 0 0 0 0 0 0 0 0 0 0 0 0 0 0 0 0 0 0 0 0 0 0 0 0 0 0 0 0 0 0 0 0
0 0 0 0 0 0 0 0 0 0 0 0 0 0 0 0 0 0 0 0 0 0 0 0 0 0 0 0 0 0 0 0 0 0 0 0 0 0 0 0 0 0 0
0 0 0 0 0 0 0 0 0 0 0 0 0 0 0 0 0 0 0 0 0 0 0 0 0 0 0 0 0 0 0 0 0 0 0 0 0 0 0 0 0 0 0
0 0 0 0 0 0 0 0 0 0 0 0 0 0 0 0 0 0 0 0 0 0 0 0 0 0 0 0 0 0 0 0 0 0 0 0 0 0 0 0 0 0 0
0 0 0 0 0 0 0 0 0 0 0 0 0 0 0 0 0 0 0 0 0 0 0 0 0 0 0 0 0 0 0 0 0 0 0 0 0 0 0 0 0 0 0
0 0 0 0 0 0 0 0 0 0 0 0 0 0 0 0 0 0 0 0 0 0 0 0 0 0 0 0 0 0 0 0 0 0 0 0 0 0 0 0 0 0 0
0 0 0 0 0 0 0 0 0 0 0 0 0 0 0 0 0 0 0 0 0 0 0 0 0 0 0 0 0 0 0 0 0 0 0 0 0 0 0 0 0 0 0
0 0 0 0 0 0 0 0 0 0 0 0 0 0 0 0 0 0 0 0 0 0 0 0 0 0 0 0 0 0 0 0 0 0 0 0 0 0 0 0 0 0 0
0 0 0 0 0 0 0 0 0 0 0 0 0 0 0 0 0 0 0 0 0 0 0 0 0 0 0 0 0 0 0 0 0 0 0 0 0 0 0 0 0 0 0
0 0 0 0 0 0 0 0 0 0 0 0 0 0 0 0 0 0 0 0 0 0 0 0 0 0 0 0 0 0 0 0 0 0 0 0 0 0 0 0 0 0 0
0 0 0 0 0 0 0 0 0 0 0 0 0 0 0 0 0 0 0 0 0 0 0 0 0 0 0 0 0 0 0 0 0 0 0 0 0 0 0 0 0 0 0
0 0 0 0 0 0 0 0 0 0 0 0 0 0 0 0 0 0 0 0 0 0 0 0 0 0 0 0 0 0 0 0 0 0 0 0 0 0 0 0 0 0 0
0 0 0 0 0 0 0 0 0 0 0 0 0 0 0 0 0 0 0 0 0 0 0 0 0 0 0 0 0 0 0 0 0 0 0 0 0 0 0 0 0 0 0
0 0 0 0 0 0 0 0 0 0 0 0 0 0 0 0 0 0 0 0 0 0 0 0 0 0 0 0 0 0 0 0 0 0 0 0 0 0 0 0 0 0 0
0 0 0 0 0 0 0 0 0 0 0 0 0 0 0 0 0 0 0 0 0 0 0 0 0 0 0 0 0 0 0 0 0 0 0 0 0 0 0 0 0 0 0
Height
5799 5798 5797 5796 5794 5792 5790 5788 5786 5784 5783 5781 5779 5776 5774 5771 5768 5765 5762 5759 5755 5751 5747 5743 5739 5734 5729 5723 5718 5712 5706 5701 5695 5689 5684 5679 5675 5672 5667 5664 5660 5656 5652
5790 5788 5787 5786 5784 5783 5780 5778 5776 5775 5772 5770 5768 5766 5763 5760 5757 5754 5750 5746 5742 5738 5733 5728 5723 5717 5712 5706 5700 5694 5689 5683 5678 5672 5666 5662 5658 5655 5651 5647 5643 5639 5636
5780 5779 5777 5776 5774 5773 5770 5769 5767 5765 5762 5760 5757 5754 5751 5748 5745 5741 5737 5732 5727 5722 5717 5712 5706 5701 5695 5689 5683 5677 5672 5666 5661 5656 5650 5646 5643 5639 5636 5633 5629 5625 5621
5770 5769 5767 5766 5765 5763 5761 5759 5756 5754 5752 5750 5747 5744 5740 5737 5733 5728 5724 5718 5713 5708 5702 5696 5690 5684 5678 5672 5667 5661 5656 5650 5646 5641 5637 5633 5630 5627 5624 5621 5618 5614 5610
5760 5759 5758 5756 5755 5753 5751 5749 5747 5745 5742 5739 5736 5733 5729 5725 5721 5716 5711 5706 5700 5694 5688 5682 5675 5669 5663 5657 5652 5646 5641 5637 5632 5629 5626 5622 5619 5617 5614 5611 5608 5604 5601
5751 5750 5749 5747 5745 5744 5741 5739 5738 5735 5732 5729 5726 5722 5719 5714 5710 5705 5700 5694 5688 5681 5675 5668 5662 5656 5650 5644 5639 5634 5629 5625 5622 5619 5616 5614 5611 5608 5605 5602 5599 5597 5593
5742 5741 5740 5738 5737 5735 5733 5731 5728 5726 5723 5720 5717 5713 5709 5705 5700 5695 5689 5683 5676 5670 5663 5657 5650 5644 5639 5634 5629 5624 5621 5617 5614 5611 5609 5607 5604 5602 5599 5596 5593 5590 5587
5734 5733 5732 5730 5728 5726 5724 5722 5720 5717 5714 5711 5708 5704 5700 5695 5690 5685 5679 5673 5666 5660 5653 5647 5641 5635 5630 5625 5621 5618 5614 5611 5609 5606 5604 5602 5600 5597 5594 5591 5588 5585 5581
5727 5726 5724 5722 5720 5718 5716 5714 5712 5709 5706 5703 5700 5696 5691 5687 5681 5676 5670 5664 5658 5652 5646 5640 5634 5629 5625 5621 5617 5614 5611 5608 5606 5603 5601 5599 5597 5594 5590 5587 5584 5581 5577
5720 5718 5716 5715 5713 5711 5709 5706 5704 5701 5699 5695 5692 5688 5683 5679 5674 5668 5663 5658 5652 5647 5641 5635 5630 5626 5622 5618 5615 5612 5609 5606 5604 5602 5599 5597 5594 5591 5587 5584 5581 5577 5574
5713 5711 5709 5708 5706 5704 5702 5699 5697 5694 5692 5688 5685 5681 5676 5672 5667 5662 5657 5652 5647 5642 5637 5633 5628 5624 5621 5617 5614 5611 5608 5605 5603 5600 5597 5594 5591 5588 5585 5581 5578 5574 5571
5706 5705 5703 5701 5699 5697 5695 5693 5690 5688 5685 5682 5678 5674 5670 5665 5661 5657 5652 5648 5644 5639 5635 5631 5627 5624 5620 5617 5614 5611 5608 5605 5602 5599 5596 5593 5590 5586 5583 5579 5576 5572 5569
5700 5698 5697 5695 5693 5691 5689 5687 5684 5682 5679 5675 5672 5668 5664 5660 5656 5653 5649 5645 5641 5638 5634 5631 5627 5624 5620 5617 5614 5611 5607 5604 5601 5598 5595 5592 5588 5585 5582 5578 5575 5571 5567
5694 5693 5691 5689 5687 5686 5684 5681 5679 5676 5673 5670 5667 5664 5660 5657 5653 5650 5646 5644 5640 5637 5634 5631 5627 5624 5621 5617 5614 5611 5608 5604 5601 5598 5594 5591 5587 5584 5581 5577 5574 5570 5567
5689 5688 5686 5684 5682 5680 5678 5676 5674 5671 5669 5666 5663 5660 5657 5654 5651 5648 5645 5642 5639 5637 5634 5631 5628 5624 5621 5618 5615 5612 5608 5604 5601 5598 5594 5590 5587 5584 5580 5577 5574 5570 5566
5685 5683 5681 5679 5677 5675 5673 5672 5669 5667 5665 5663 5660 5658 5655 5652 5649 5647 5644 5642 5639 5637 5634 5631 5628 5625 5622 5618 5615 5612 5608 5604 5601 5597 5594 5590 5587 5584 5581 5577 5574 5570 5567
5680 5678 5676 5674 5673 5671 5669 5667 5666 5664 5662 5660 5658 5656 5653 5651 5649 5647 5644 5642 5640 5637 5634 5631 5628 5625 5622 5619 5615 5612 5608 5605 5601 5598 5594 5591 5588 5584 5581 5578 5574 5571 5568
5676 5674 5672 5671 5669 5667 5665 5664 5662 5661 5659 5658 5656 5654 5652 5651 5649 5646 5644 5643 5640 5637 5635 5632 5629 5625 5622 5619 5615 5612 5609 5605 5602 5598 5595 5591 5588 5585 5582 5579 5575 5572 5569
5673 5671 5669 5668 5666 5664 5662 5661 5660 5659 5657 5656 5655 5653 5652 5650 5649 5647 5645 5643 5640 5638 5635 5632 5629 5626 5622 5619 5616 5612 5609 5606 5603 5599 5596 5592 5589 5586 5583 5580 5577 5573 5570
5670 5668 5666 5665 5663 5661 5660 5659 5658 5657 5656 5655 5654 5653 5652 5650 5649 5647 5645 5643 5640 5638 5635 5632 5629 5626 5623 5620 5616 5613 5610 5607 5603 5600 5596 5593 5590 5587 5584 5581 5578 5575 5572
5667 5666 5664 5663 5661 5660 5659 5658 5657 5656 5656 5655 5654 5653 5651 5650 5649 5647 5645 5643 5641 5638 5636 5633 5630 5627 5624 5621 5617 5614 5611 5607 5604 5600 5597 5594 5591 5588 5585 5582 5579 5577 5574
5665 5664 5662 5661 5660 5659 5658 5658 5657 5656 5655 5655 5654 5653 5652 5651 5649 5648 5646 5644 5641 5639 5636 5634 5631 5628 5625 5622 5618 5615 5612 5608 5605 5601 5598 5595 5592 5589 5586 5584 5581 5579 5576
5663 5662 5661 5660 5659 5659 5658 5658 5657 5656 5656 5655 5654 5653 5652 5651 5650 5648 5646 5644 5642 5640 5637 5635 5632 5629 5626 5623 5619 5616 5613 5610 5606 5603 5600 5597 5594 5591 5588 5586 5583 5581 5579
5663 5662 5661 5660 5659 5659 5658 5658 5657 5657 5656 5655 5655 5654 5653 5651 5650 5649 5647 5645 5643 5641 5638 5636 5633 5630 5627 5624 5621 5618 5614 5611 5608 5605 5602 5599 5596 5593 5591 5588 5586 5584 5582
5665 5664 5662 5661 5660 5659 5659 5659 5658 5658 5657 5656 5655 5655 5654 5652 5651 5650 5648 5646 5644 5642 5640 5637 5635 5632 5629 5626 5623 5619 5616 5613 5610 5607 5604 5601 5599 5596 5594 5591 5589 5587 5585
5668 5666 5665 5663 5662 5661 5660 5660 5659 5659 5658 5658 5657 5656 5655 5654 5652 5651 5649 5648 5646 5644 5641 5639 5636 5634 5631 5628 5625 5622 5619 5616 5613 5610 5607 5604 5602 5599 5597 5595 5593 5590 5588
Wind_Speed
39 39 40 42 42 41 41 40 40 39 39 39 40 40 40 41 42 43 44 45 47 49 51 53 54 56 57 59 60 61 61 62 63 64 65 65 64 64 64 63 63 62 62
39 39 40 40 39 39 39 39 39 39 39 41 41 42 43 43 44 45 46 48 49 51 53 55 56 57 57 58 58 58 59 59 60 60 61 61 60 59 59 58 57 56 55
38 38 39 39 38 38 38 39 39 39 39 40 41 41 43 43 45 47 47 49 50 52 54 55 57 58 58 57 57 57 57 56 55 55 54 53 52 52 50 49 48 48 47
39 39 40 39 39 39 39 38 38 38 39 40 42 42 43 43 45 46 47 49 50 52 53 54 54 54 54 54 53 53 52 51 49 48 46 46 45 44 42 42 41 41 40
37 38 37 38 38 38 38 38 39 39 40 41 41 42 42 43 44 44 45 46 48 49 49 50 50 50 50 50 49 48 47 45 43 41 40 39 37 36 36 35 35 33 32
33 34 35 35 36 36 37 36 37 38 39 39 39 39 40 40 41 42 43 44 45 46 46 46 46 45 45 44 42 41 39 36 35 34 33 31 30 30 29 29 28 27 27
31 31 32 33 34 34 34 35 35 35 35 36 37 37 38 39 40 41 42 43 43 43 42 41 40 39 38 36 34 32 30 29 28 27 26 25 25 24 23 23 23 23 23
29 29 29 30 31 31 32 33 33 33 33 34 35 35 36 37 38 38 39 39 39 38 36 35 34 32 30 28 25 23 21 20 20 20 20 20 19 19 20 20 20 21 21
27 28 28 29 29 29 29 30 30 30 31 31 32 32 33 34 35 35 35 34 32 31 29 28 26 24 21 20 19 18 17 16 16 16 16 16 17 18 18 18 18 19 19
27 27 27 27 27 27 27 27 27 27 28 29 29 30 31 31 31 30 29 28 27 25 24 23 20 19 17 16 15 15 14 14 14 15 15 15 15 15 16 16 17 17 18
24 24 25 25 25 25 25 25 25 26 26 26 27 28 28 28 27 26 25 24 23 21 20 18 17 16 15 14 14 13 13 13 13 14 14 14 15 15 15 16 16 17 18
22 23 23 23 23 23 22 22 23 24 24 24 25 25 24 24 24 23 22 20 19 17 16 15 14 14 13 13 13 13 13 13 13 14 15 15 15 15 16 16 16 16 17
21 21 21 21 21 21 21 21 22 22 22 22 22 22 22 21 20 19 18 17 15 14 13 13 13 12 12 12 13 13 14 14 14 15 15 15 16 15 15 15 15 16 17
19 19 19 19 19 19 19 20 20 20 20 19 19 19 18 17 17 16 15 14 12 11 11 11 11 11 12 13 13 14 15 15 15 15 15 15 15 15 15 15 15 16 16
17 17 17 17 18 18 18 18 18 18 17 16 16 16 15 15 14 13 11 10 10 9 10 11 11 12 12 13 13 14 15 15 15 16 16 15 14 14 14 15 15 15 15
15 16 16 16 16 16 16 16 15 15 14 13 13 13 12 12 11 10 9 8 8 9 10 11 11 12 12 13 14 14 15 15 15 16 15 15 14 13 13 13 14 13 14
14 14 14 14 14 14 13 13 13 12 12 11 11 10 9 8 8 8 8 8 9 10 10 11 12 12 13 13 14 14 14 14 15 15 15 14 14 13 13 13 13 13 12
12 12 11 11 12 11 11 11 10 10 8 8 7 7 7 7 7 7 7 8 9 9 10 11 12 13 13 14 14 14 14 14 14 14 14 14 14 13 13 13 13 12 12
10 10 10 10 10 10 9 9 8 6 6 5 5 5 5 5 6 6 7 8 9 9 10 11 12 13 14 14 14 14 14 14 14 14 14 14 13 13 12 12 12 12 11
9 9 9 8 8 8 7 6 5 4 4 4 4 4 4 5 5 6 7 8 9 10 11 12 12 13 13 14 14 14 14 14 14 14 14 13 13 13 12 12 11 11 11
8 8 7 7 6 5 5 4 3 3 3 3 3 3 4 4 5 6 7 8 9 10 11 11 12 13 13 13 14 14 14 14 15 14 14 13 13 13 12 11 11 11 11
7 6 6 5 4 4 3 3 2 2 2 2 2 3 3 4 5 6 7 8 9 10 10 11 12 12 13 13 14 14 15 15 15 14 14 13 13 13 12 12 12 11 12
6 5 4 3 2 2 2 2 2 2 3 3 3 3 4 4 5 6 7 8 9 10 10 11 12 12 13 13 14 15 15 15 15 15 14 14 13 13 13 12 12 13 13
7 6 5 3 2 2 2 2 2 3 3 3 4 4 4 5 6 6 7 8 9 10 11 12 12 13 13 14 14 14 15 15 15 15 15 14 14 13 13 13 13 13 13
9 9 8 6 5 4 4 4 3 3 4 4 4 4 5 5 6 7 7 8 9 10 11 12 12 13 14 14 14 15 15 15 15 15 15 15 15 14 14 14 14 14 14
12 11 10 9 8 7 6 6 5 5 5 5 5 6 6 6 7 7 8 9 10 10 11 12 13 13 14 14 14 15 15 15 15 15 15 15 15 15 15 15 15 15 16
Wind_Direction
273 274 276 278 280 282 283 284 286 286 286 284 283 284 284 283 283 283 283 284 284 284 283 285 286 286 286 285 285 284 284 283 282 282 282 282 282 283 283 283 284 284 284
273 275 276 278 279 280 282 284 285 285 284 283 281 281 282 282 282 284 284 284 285 285 286 287 288 288 287 286 286 285 285 285 285 285 285 285 285 285 285 285 285 285 285
272 273 275 276 277 278 281 283 283 282 281 280 280 281 283 284 285 285 286 287 288 289 289 289 289 289 288 288 287 287 287 287 287 287 287 287 288 288 288 288 288 288 288
271 273 274 275 276 277 279 280 281 281 282 282 283 284 285 286 288 289 290 291 291 291 292 292 291 291 291 290 290 289 289 289 290 290 290 290 290 290 290 290 290 291 291
271 273 273 274 276 278 278 280 281 282 283 284 286 288 289 291 293 293 294 294 295 295 296 296 295 294 293 293 292 292 291 291 291 291 291 292 292 292 293 293 294 293 293
271 272 274 275 277 278 278 281 283 285 286 287 290 292 294 295 297 298 299 300 300 300 300 299 298 297 297 296 295 295 295 294 294 293 293 294 294 296 297 298 297 297 297
274 275 275 276 278 279 281 283 286 287 289 291 293 295 297 299 300 301 303 303 303 303 303 302 302 302 301 300 301 299 299 297 296 296 296 297 298 299 301 301 301 301 302
274 275 277 278 280 282 284 286 289 292 293 295 297 298 300 302 304 305 306 307 308 308 307 307 307 307 307 308 309 309 308 306 305 304 303 303 303 305 306 306 307 307 308
280 282 283 284 286 288 289 292 294 295 296 298 300 302 305 307 308 309 310 311 312 314 316 317 317 316 316 318 319 320 319 317 315 313 312 310 311 311 312 313 313 314 315
282 284 286 287 289 291 292 294 295 296 298 301 304 306 308 310 312 313 314 315 317 319 322 324 326 327 329 331 331 331 330 327 326 325 322 320 321 321 321 322 323 323 323
283 285 287 288 290 292 293 295 297 299 301 304 306 308 311 313 315 316 317 318 320 324 327 331 334 337 339 341 342 342 340 338 337 336 334 333 332 332 331 331 331 330 331
285 286 287 290 291 293 295 297 299 302 304 306 309 312 314 315 317 319 321 323 324 328 332 337 339 342 344 347 349 349 349 348 347 345 343 341 339 339 339 339 338 337 336
288 288 290 292 293 295 297 299 302 305 306 308 310 313 316 317 320 322 324 326 328 332 338 342 346 350 352 354 356 357 357 356 354 352 349 346 344 345 345 344 344 344 343
291 291 293 293 294 296 298 301 303 305 307 310 312 314 317 320 323 325 326 328 331 338 346 352 355 357 0 3 4 2 0 359 357 355 353 352 351 352 352 351 350 349 351
293 294 294 295 295 297 299 300 303 306 308 312 314 315 319 323 327 329 331 334 340 349 356 360 1 3 5 5 3 0 359 358 359 359 358 358 357 357 356 357 357 358 359
295 296 296 297 297 298 300 301 304 307 310 313 317 320 322 328 335 341 344 348 354 359 1 2 4 4 3 2 1 360 360 1 2 3 5 5 4 2 1 2 3 6 8
299 299 298 299 299 300 301 301 304 308 310 313 319 325 332 340 347 354 360 2 3 3 4 5 6 5 5 4 3 3 3 4 6 7 9 8 7 6 6 7 9 13 16
301 302 302 303 304 304 302 303 306 309 313 317 325 334 345 352 0 5 6 5 3 5 8 9 8 7 7 7 6 7 8 9 10 11 11 11 11 11 12 13 15 19 22
305 307 308 307 306 306 304 305 308 312 318 324 333 344 354 1 7 9 7 5 7 10 10 9 9 9 10 11 11 12 13 13 13 13 14 14 15 16 17 18 20 23 26
311 313 313 311 311 313 313 312 313 319 327 333 342 355 3 5 7 9 10 10 10 10 9 10 11 12 13 13 14 15 16 15 15 16 17 18 19 20 21 23 25 27 29
317 319 318 316 319 322 326 327 326 332 342 351 0 7 10 11 11 12 12 11 10 10 12 13 14 15 16 16 17 19 19 19 18 19 20 22 23 24 26 28 31 33 35
323 322 323 323 324 331 338 343 350 2 11 18 22 17 16 18 20 19 15 13 13 15 16 16 16 16 17 19 20 20 20 20 20 22 25 26 28 29 32 37 39 42 43
347 343 336 333 338 351 2 14 29 38 39 40 34 30 29 27 26 24 22 22 21 19 19 18 18 18 18 19 19 20 22 23 25 28 30 31 34 37 40 44 47 48 49
27 26 26 27 30 32 38 47 56 53 49 44 41 45 47 42 34 28 25 23 23 23 22 22 22 21 22 22 22 23 25 26 29 32 35 37 39 43 46 49 51 52 53
44 45 47 49 53 59 63 63 63 61 56 53 54 54 50 43 38 35 33 32 29 28 27 26 25 25 26 25 26 28 29 31 34 37 40 42 45 48 50 53 55 56 57
49 50 51 53 57 63 69 71 71 69 64 63 62 60 54 49 47 43 40 38 35 33 30 28 27 27 28 29 30 32 34 36 39 41 44 47 50 52 54 57 59 60 61